Miscellaneous Local Product
Issued by NWS North Platte, NE

Home | Current Version | Previous Version | Text Only | Print | Product List | Glossary On
Versions: 1 2 3 4 5 6 7 8 9 10 11 12 13 14 15 16 17 18 19 20 21 22 23 24 25 26 27 28 29 30 31 32 33 34 35 36 37 38 39 40 41 42 43 44 45 46 47 48 49 50
000
AXUS43 KLBF 311110
MISLBF


WESTERN AND NORTH CENTRAL NEBRASKA HOURLY WEATHER ROUNDUP
NATIONAL WEATHER SERVICE NORTH PLATTE NE
600 AM CDT FRI JUL 31 2015

***STATIONS NOT REPORTING VARIABLES SUCH AS SKY/WEATHER OR
PRESSURE ARE PROVIDED BY THE NEBRASKA DEPARTMENT OF
ROADS...RAWS...AND APRS NETWORKS...AND ARE NOT UNDER
NATIONAL WEATHER SERVICE QUALITY CONTROL***

...OBSERVATIONS IN AND NEAR THE EASTERN PANHANDLE OF NEBRASKA...

CITY           SKY/WX    TMP DP  RH WIND       PRES   REMARKS
PINE RIDGE     CLEAR     51  48  89 E3        30.23R
CHADRON        CLEAR     53  48  83 CALM      30.22S
ALLIANCE       CLEAR     55  53  93 CALM      30.25S
SIDNEY         CLEAR     56  53  90 W8        30.29S
BIG SPRINGS      N/A     57  56  96 CALM        N/A
$$

...OBSERVATIONS IN NORTH CENTRAL NEBRASKA...

CITY           SKY/WX    TMP DP  RH WIND       PRES   REMARKS
VALENTINE      CLEAR     56  52  86 SW5       30.19S
THEDFORD       CLEAR     59  58  95 CALM      30.21S
AINSWORTH      CLEAR     63  58  86 SW5       30.18S
O`NEILL        CLEAR     63  63  97 SW3       30.16S
ORD            CLEAR     62  60  93 CALM      30.16S
BROKEN BOW     CLEAR     62  59  90 CALM      30.18F
SPRINGVIEW       N/A     56  53  89 CALM        N/A
CHAMBERS         N/A     62  60  92 CALM        N/A
EWING            N/A     62  60  95 CALM        N/A
$$

...OBSERVATIONS IN SOUTHWEST NEBRASKA AND FAR NORTHEAST COLORADO...

CITY           SKY/WX    TMP DP  RH WIND       PRES   REMARKS
WRAY           FAIR     N/A N/A N/A CALM      30.28R
IMPERIAL       CLEAR     60  56  86 W3        30.24R
OGALLALA       CLEAR     59  58  97 CALM      30.24S
NORTH PLATTE   CLEAR     61  58  90 CALM      30.21S
MCCOOK         CLEAR     64  61  90 CALM      30.21R
LEXINGTON      CLEAR     64  62  94 CALM      30.20S
PAXTON           N/A     60  57  91 CALM        N/A
BRADY            N/A     63  60  90 CALM        N/A
CALLAWAY         N/A     59  58  96 S5          N/A
$$

...NORTH PLATTE AREA...

CITY           SKY/WX    TMP DP  RH WIND       PRES   REMARKS
AIRPORT        CLEAR     61  58  90 CALM      30.21S
DOWNTOWN         N/A     65  62  89 CALM        N/A
HILLCREST        N/A     66  61  83 SE3         N/A
$$

...SOME WEATHER OBSERVATIONS FROM AROUND THE REGION...

CITY           SKY/WX    TMP DP  RH WIND       PRES   REMARKS
DENVER         PTCLDY    63  55  75 W6        30.33R
LARAMIE        CLEAR     53  44  71 N6        30.45S
CHEYENNE       CLEAR     55  50  83 W9        30.37F
SCOTTSBLUFF    CLEAR     60  56  86 CALM      30.26S
RAPID CITY     CLEAR     61  48  62 NW13      30.21F
PIERRE         CLEAR     58  52  80 NE3       30.14S
WINNER         FAIR      66  54  65 S6        30.16S
SIOUX FALLS    PTCLDY    60  58  92 CALM      30.13F
OMAHA          MOCLDY    71  65  81 S12       30.13F
GRAND ISLAND   CLEAR     69  66  90 SW8       30.17S
KANSAS CITY    PTCLDY    65  60  84 SW6       30.16S
WICHITA        MOCLDY    74  67  78 CALM      30.17R
HAYS           CLEAR     64  57  77 CALM      30.21R
LIBERAL        CLOUDY    72  66  83 E3        30.23S
GOODLAND       FOG       60  59  96 S5        30.28R VSB 1
$$



USA.gov is the U.S. government's official web portal to all federal, state and local government web resources and services.